Regional Weather Roundup
Issued by NWS

Home | Current Version | Previous Version | Text Only | Print | Product List | Glossary Off
Versions: 1 2 3 4 5 6 7 8 9 10 11 12 13 14 15 16 17 18 19 20 21 22 23 24 25 26 27 28 29 30 31 32 33 34 35 36 37 38 39 40 41 42 43 44 45 46 47 48 49 50

000
ASUS43 KDTX 181510
RWRMI
MICHIGAN HOURLY REGIONAL WEATHER ROUNDUP
NATIONAL WEATHER SERVICE DETROIT/PONTIAC MI
1000 AM EST WED JAN 18 2017

NOTE: "FAIR" INDICATES FEW OR NO CLOUDS BELOW 12,000 FEET WITH NO
SIGNIFICANT WEATHER AND/OR OBSTRUCTION TO VISIBILITY.

MIZ047>049-052>055-059>063-066>070-074>076-081>083-181600-
SOUTHEAST LOWER MICHIGAN

CITY           SKY/WX    TMP DP  RH WIND       PRES   REMARKS
ADRIAN         CLOUDY    36  35  96 W6        30.10R WCI  31
ALMA           CLOUDY    36  35  99 W9        30.06R FOG     WCI  29
ANN ARBOR      CLOUDY    37  35  92 W9        30.07R WCI  30
BAD AXE        CLOUDY    34  34 100 W6        30.03R FOG     WCI  29
CARO           FOG       35  35  99 W8        30.03R VSB 1   WCI  29
DETROIT CITY   CLOUDY    37  36  93 W9        30.06R WCI  31
DETROIT        CLOUDY    38  35  89 W9        30.08R WCI  31
FLINT          CLOUDY    36  35  96 W10       30.06R FOG     WCI  28
GROSSE ILE     CLOUDY    37  35  92 W7        30.06R WCI  31
HILLSDALE      CLOUDY    34  32  93 W13       30.08R FOG     WCI  25
HOWELL         CLOUDY    36  34  94 W9        30.05R FOG     WCI  29

CITY           SKY/WX    TMP DP  RH WIND       PRES   REMARKS
JACKSON        CLOUDY    36  34  92 W9        30.07R WCI  29
LAMBERTVILLE   CLOUDY    37  35  90 W8        30.10R FOG     WCI  31
LANSING        CLOUDY    36  33  89 W13       30.08R FOG     WCI  27
LAPEER         CLOUDY    36  36 100 W6        30.04R FOG     WCI  31
MASON          CLOUDY    35  35 100 W7        30.07R FOG     WCI  29
MONROE         CLOUDY    37  36  96 W9        30.08R WCI  30
MT. CLEMENS    CLOUDY    38  38  99 W7        30.03R FOG     WCI  32
PONTIAC        CLOUDY    35  33  92 W12       30.03R FOG     WCI  27
PORT HOPE        N/A     34  34 100 W5        30.01R WCI  30
PORT HURON     CLOUDY    36  36 100 CALM      30.04R FOG
TRI CITIES     FOG       36  36 100 W9        30.05R VSB 1/4 WCI  29
MIDLAND        CLOUDY    37  35  93 W6        30.04R WCI  32
TROY           CLOUDY    37  35  90 W8        30.07R WCI  31
SAGINAW HB     CLOUDY    36  34  93 SW8       30.04R FOG     WCI  29
$$
MIZ043>046-050>051-056>058-064>065-071>073-077>080-181600-
SOUTHWEST LOWER MICHIGAN

CITY           SKY/WX    TMP DP  RH WIND       PRES   REMARKS
BATTLE CREEK   CLOUDY    36  36 100 W12       30.10R FOG     WCI  28
BENTON HARBOR  CLOUDY    36  34  92 W13       30.14R FOG     WCI  27
BIG RAPIDS     CLOUDY    34  33  96 W6        30.04R FOG     WCI  29
COLDWATER      CLOUDY    35  35 100 W10       30.11R FOG     WCI  28
FREMONT        FOG       35  35 100 SW5       30.06R VSB 3/4 WCI  31
HOLLAND        CLOUDY    37  36  96 W9        30.10S FOG     WCI  30
GRAND RAPIDS   CLOUDY    36  34  92 W9        30.08R FOG     WCI  29
IONIA          CLOUDY    35  35  99 W10       30.07R FOG     WCI  27
KALAMAZOO      CLOUDY    37  34  89 W12       30.11R FOG     WCI  29
LUDINGTON      FOG       35  35 100 SW10      30.04R VSB 1/4 WCI  27
MARSHALL       CLOUDY    36  36  98 W13       30.09R FOG     WCI  28
MOUNT PLEASANT CLOUDY    36  35  97 W9        30.03R FOG     WCI  29
MUSKEGON       CLOUDY    38  37  97 W8        30.08S FOG     WCI  32
SOUTH HAVEN    CLOUDY    37  36  99 W8        30.12R FOG     WCI  30
$$
MIZ016>042-181600-
NORTHERN LOWER MICHIGAN

CITY           SKY/WX    TMP DP  RH WIND       PRES   REMARKS
ALPENA         CLOUDY    33  31  92 W7        29.99S WCI  27
BEAVER ISLAND  CLOUDY    35  35 100 SW9G18    29.94F WCI  27
BELLAIRE       CLOUDY    33  33  99 SW3       30.01R FOG
CADILLAC       FOG       33  32  98 SW6       29.99S VSB 3/4 WCI  27
CHARLEVOIX     CLOUDY    34  34 100 SW7       30.01R FOG     WCI  28
FRANKFORT      CLOUDY    36  36  99 SW12      30.01S FOG     WCI  28
GAYLORD        FOG       33  30  88 W12       29.96R VSB<1/4 WCI  24
GRAYLING       FOG       33  33  99 W5        29.99S VSB 1/4 WCI  29
HARBOR SPRINGS CLOUDY    33  33  99 SW10      29.97S FOG     WCI  25
HOUGHTON LAKE  FOG       32  32 100 W9        30.00S VSB 3/4 WCI  24
MANISTEE       FOG       36  36 100 W6        30.03R VSB 1/2 WCI  31
OSCODA         CLOUDY    36  35  96 SW3       30.00S
PELLSTON       CLOUDY    34  32  92 SW8       29.97S WCI  27
ROGERS CITY    CLOUDY    32  31  97 SW8       29.99R FOG     WCI  25
TRAVERSE CITY  CLOUDY    35  33  92 VRB5      30.00S FOG     WCI  31
$$
MIZ007>008-015-181600-
EASTERN UPPER MICHIGAN

CITY           SKY/WX    TMP DP  RH WIND       PRES   REMARKS
KINROSS        CLOUDY    32  31  96 S7        29.92F WCI  26
MACKINAC ISLAN FOG       32  32 100 SW10G20   29.94F VSB 1/4 WCI  24
NEWBERRY       FOG       31  30  96 S13       29.88F VSB 1   WCI  21
S. S. MARIE    CLOUDY    31  30  96 S6        29.92F FOG     WCI  25
MUNISING         N/A     33  30  88 S13G23    29.86S WCI  24
$$
MIZ004>006-011>014-085-181600-
CENTRAL UPPER MICHIGAN

CITY           SKY/WX    TMP DP  RH WIND       PRES   REMARKS
MANISTIQUE     FOG       32  31  98 S10G16    29.92F VSB 1/4 WCI  23
ESCANABA       CLOUDY    33  32  96 SW7       29.92F WCI  27
SAWYER-GWINN   SUNNY     25  23  93 S6        29.86R WCI  18
$$
MIZ001>003-009>011-084-181600-
WESTERN UPPER MICHIGAN

CITY           SKY/WX    TMP DP  RH WIND       PRES   REMARKS
IRON MOUNTAIN  CLOUDY    22  20  92 CALM      29.89R
HOUGHTON       CLOUDY    28  21  75 SW7       29.76F WCI  21
COPPER HARBOR    N/A     31  24  75 VRB6      29.77R WCI  25
IRONWOOD       SUNNY     34  25  69 SW15      29.82R WCI  24
$$

ABBREVIATIONS USED IN REMARKS
   TC - TEMPERATURE IN CELSIUS
  WCI - WIND CHILL INDEX
   HX - HEAT INDEX
  VSB - VISIBILITY




USA.gov is the U.S. government's official web portal to all federal, state and local government web resources and services.